Find Starlink 32486

NORAD ID: 61854 Int'l Des: 2024-202 Owner: SPXS Country: US Constellation: starlink operational
LEOCIRCULAR

实时位置

正在加载3D地球...

关于 Starlink 32486

正在加载描述...

即将过境

Passes for default location (London). Set your location on the main map for personalized predictions.

高度历史

Loading altitude history...

两行轨道根数

1 61854U 24202K 26105.13219122 .00001210 00000-0 53482-4 0 9999
2 61854 43.0039 31.9586 0001192 267.8121 92.2594 15.27580555 80919
Epoch: Apr 15, 2026 • Age: 10 hours

当前状态

高度 486.9 km
速度 7.63 km/s
星下点 42.65°N, 91.54°E
发射日期 Nov 7, 2024
运行时间 1.4 years
类型 internet

技术详情

分类 Payload
质量 730.00 kg
干质量 700.00 kg
总质量 730.00 kg
长度 0.30 m
直径 4.10 m
跨度 29.00 m
形状 Box + pan
制造商 SPXS
平台类型 Starlink V2M
阶段状态 In Orbit
所有者/国家 SPXS/US

Most Searched